"SCET";"TARGET";"ELECTRON_DENSITY";"ERROR_FLAG";"ELECTRON_DENSITY_ERROR";"FREQ_FCE";"MEASURED_VALUE";"MEASURED_ITEM";"FREQ_PLASMA";"FREQ_UPPER_HYBRID";"FREQ_R_EQUALS_ZERO";"FREQ_L_EQUALS_ZERO";"ORBIT_NUMBER";"SATURN_RADIUS";"SATURN_IAU_LONGITUDE";"SATURN_SLS4_S_LONGITUDE";"SATURN_SLS4_N_LONGITUDE";"SATURN_SLS5_S_LONGITUDE";"SATURN_SLS5_N_LONGITUDE";"SATURN_LOCAL_TIME";"SATURN_KRONOGRAPHIC_LATITUDE";"SATURN_MAGNETIC_LATITUDE";"SATURN_L";"SATURN_L_OFFSET";"SATURN_SOLAR_EQUATORIAL_X";"SATURN_SOLAR_EQUATORIAL_Y";"SATURN_SOLAR_EQUATORIAL_Z";"SATURN_ALTITUDE";"ENCELADUS_ENCOUNTER_NUMBER";"ENCELADUS_RADIUS";"ENCELADUS_COROTATIONAL_X";"ENCELADUS_COROTATIONAL_Y";"ENCELADUS_COROTATIONAL_Z";"ENCELADUS_TRUE_ANOMALY";"ENCELADUS_PERIAPSIS_TIME";"JUPITER_RADIUS";"JUPITER_SYSTEMIII_LONGITUDE";"JUPITER_MAGNETIC_LATITUDE";"JUPITER_MAGNETIC_LOCAL_TIME";"JUPITER_L";"IO_PHASE";"EARTH_RADIUS";"EARTH_MAGNETIC_LATITUDE";"EARTH_LOCAL_TIME";"EARTH_L"
"[UTC]";"[0=Saturn, 1=Enceladus, 2=Jupiter, 3=Earth]";"[cm-3]";"[0=automated, 1=manual]";"[normalized density error]";"[Hz]";"[Hz]";"[0=upper hybrid frequency, 1=plasma frequency cutoff]";"[Hz]";"[Hz]";"[Hz]";"[Hz}";"[0, A, B, C, 3, 4, ... , 292, 293]";"[Rs where 1Rs=60268km]";"[degrees]";"[degrees]";"[degrees]";"[degrees]";"[degrees]";"[hours]";"[degrees]";"[degrees where offset=2293km north]";"[Rs where 1Rs=60268km]";"[Rs where 1Rs=60268km and offset=2293km north]";"[Rs where 1Rs=60268km]";"[Rs where 1Rs=60268km]";"[Rs where 1Rs=60268km]";"[km where ellipsoid a,b=60268km and c=54364km]";"[E0, E1, E2, ... , E21, E22]";"[Renc where 1Renc=252.1km]";"[Renc where 1Renc=252.1km]";"[Renc where 1Renc=252.1km]";"[Renc where 1Renc=252.1km]";"[degrees]";"[UTC]";"[Rj where 1Rj=71492km]";"[degrees]";"[degrees using JRM09 model]";"[hours using JRM09 model]";"[Rj where 1Rj=71492km]";"[degrees]";"[Re where 1Re=6378.1366km]";"[degrees]";"[hours]";"[Re where 1Re=6378.1366km]"
2016-11-27T06:29:04.090Z;0;1.4240e+01;0;     0.206; 11104.771;  35661.645; 0;  33888.598;  35661.645;  39892.828;  28788.055;250;   3.744;  16.153;;; 127.073;  93.686;  13.391;   6.205;   5.625;   3.788;   3.736;   3.478;   1.326;   0.404;;;;;;;;;;;;;;;;;;
2016-11-27T06:30:00.089Z;0;1.4440e+01;0;     0.183; 11114.824;  35889.449; 0;  34124.965;  35889.449;  40131.941;  29017.117;250;   3.741;  16.563;;; 127.480;  94.080;  13.399;   5.996;   5.416;   3.783;   3.734;   3.474;   1.333;   0.391;;;;;;;;;;;;;;;;;;
2016-11-27T06:30:08.089Z;0;1.5230e+01;0;     0.248; 11114.824;  36769.473; 0;  35049.320;  36769.473;  41044.586;  29929.764;250;   3.741;  16.622;;; 127.538;  94.138;  13.400;   5.966;   5.386;   3.782;   3.734;   3.474;   1.334;   0.389;;;;;;;;;;;;;;;;;;
2016-11-27T06:30:16.089Z;0;1.6240e+01;0;     0.169; 11114.824;  37860.160; 0;  36191.883;  37860.160;  42173.492;  31058.666;250;   3.741;  16.681;;; 127.597;  94.195;  13.401;   5.937;   5.357;   3.781;   3.733;   3.473;   1.335;   0.387;;;;;;;;;;;;;;;;;;
2016-11-27T06:30:24.089Z;0;1.5960e+01;0;     0.172; 11114.824;  37556.668; 0;  35874.281;  37556.668;  41859.602;  30744.775;250;   3.740;  16.739;;; 127.655;  94.253;  13.402;   5.907;   5.327;   3.780;   3.733;   3.473;   1.336;   0.385;;;;;;;;;;;;;;;;;;
2016-11-27T06:30:32.089Z;0;1.5440e+01;0;     0.185; 11114.824;  36995.570; 0;  35286.441;  36995.570;  41278.801;  30163.979;250;   3.740;  16.798;;; 127.713;  94.310;  13.403;   5.877;   5.297;   3.780;   3.732;   3.472;   1.337;   0.383;;;;;;;;;;;;;;;;;;
2016-11-27T06:30:40.089Z;0;1.5780e+01;0;     0.169; 11114.824;  37364.676; 0;  35673.234;  37364.676;  41660.938;  30546.113;250;   3.740;  16.856;;; 127.771;  94.368;  13.405;   5.847;   5.267;   3.779;   3.732;   3.472;   1.337;   0.381;;;;;;;;;;;;;;;;;;
2016-11-27T06:30:48.089Z;0;1.5820e+01;0;     0.180; 11114.824;  37402.020; 0;  35712.348;  37402.020;  41699.582;  30584.760;250;   3.739;  16.915;;; 127.829;  94.426;  13.406;   5.817;   5.237;   3.778;   3.732;   3.471;   1.338;   0.379;;;;;;;;;;;;;;;;;;
2016-11-27T06:30:56.089Z;0;1.6160e+01;0;     0.173; 11114.824;  37767.402; 0;  36094.840;  37767.402;  42077.574;  30962.750;250;   3.739;  16.974;;; 127.888;  94.483;  13.407;   5.788;   5.207;   3.777;   3.731;   3.470;   1.339;   0.377;;;;;;;;;;;;;;;;;;
2016-11-27T06:31:04.089Z;0;1.6230e+01;0;     0.222; 11125.101;  37845.602; 0;  36173.496;  37845.602;  42161.234;  31036.133;250;   3.739;  17.032;;; 127.946;  94.541;  13.408;   5.758;   5.177;   3.777;   3.731;   3.470;   1.340;   0.375;;;;;;;;;;;;;;;;;;
2016-11-27T06:31:12.089Z;0;1.6420e+01;0;     0.167; 11125.101;  38046.383; 0;  36383.504;  38046.383;  42368.816;  31243.717;250;   3.738;  17.091;;; 128.004;  94.599;  13.409;   5.728;   5.147;   3.776;   3.731;   3.469;   1.341;   0.373;;;;;;;;;;;;;;;;;;
2016-11-27T06:31:20.089Z;0;1.6320e+01;0;     0.176; 11125.101;  37940.812; 0;  36273.094;  37940.812;  42259.680;  31134.580;250;   3.738;  17.149;;; 128.062;  94.656;  13.410;   5.698;   5.117;   3.775;   3.730;   3.469;   1.342;   0.371;;;;;;;;;;;;;;;;;;
2016-11-27T06:31:28.089Z;0;1.6660e+01;0;     0.205; 11125.101;  38306.977; 0;  36655.922;  38306.977;  42638.129;  31513.029;250;   3.737;  17.208;;; 128.120;  94.714;  13.411;   5.668;   5.087;   3.774;   3.730;   3.468;   1.343;   0.369;;;;;;;;;;;;;;;;;;
2016-11-27T06:31:36.089Z;0;1.6770e+01;0;     0.155; 11125.101;  38424.703; 0;  36778.934;  38424.703;  42759.754;  31634.652;250;   3.737;  17.267;;; 128.178;  94.772;  13.412;   5.638;   5.057;   3.774;   3.730;   3.468;   1.344;   0.367;;;;;;;;;;;;;;;;;;
2016-11-27T06:31:44.089Z;0;1.6990e+01;0;     0.157; 11125.101;  38646.559; 0;  37010.656;  38646.559;  42988.887;  31863.785;250;   3.737;  17.325;;; 128.237;  94.829;  13.413;   5.608;   5.027;   3.773;   3.729;   3.467;   1.345;   0.365;;;;;;;;;;;;;;;;;;
2016-11-27T06:31:52.089Z;0;1.6960e+01;0;     0.142; 11125.101;  38616.824; 0;  36979.605;  38616.824;  42958.180;  31833.080;250;   3.736;  17.384;;; 128.295;  94.887;  13.414;   5.579;   4.997;   3.772;   3.729;   3.467;   1.346;   0.363;;;;;;;;;;;;;;;;;;
2016-11-27T06:32:00.089Z;0;1.7010e+01;0;     0.151; 11135.908;  38671.883; 0;  37033.852;  38671.883;  43018.031;  31882.121;250;   3.736;  17.442;;; 128.353;  94.945;  13.416;   5.549;   4.967;   3.771;   3.729;   3.466;   1.347;   0.361;;;;;;;;;;;;;;;;;;
2016-11-27T06:32:08.089Z;0;1.6990e+01;0;     0.142; 11135.908;  38648.559; 0;  37009.492;  38648.559;  42993.945;  31858.037;250;   3.736;  17.501;;; 128.411;  95.003;  13.417;   5.519;   4.937;   3.771;   3.728;   3.466;   1.348;   0.359;;;;;;;;;;;;;;;;;;
2016-11-27T06:32:16.089Z;0;1.7140e+01;0;     0.139; 11135.908;  38811.141; 0;  37179.242;  38811.141;  43161.812;  32025.906;250;   3.735;  17.559;;; 128.469;  95.061;  13.418;   5.489;   4.907;   3.770;   3.728;   3.465;   1.349;   0.357;;;;;;;;;;;;;;;;;;
2016-11-27T06:32:24.088Z;0;1.6770e+01;0;     0.167; 11135.908;  38419.438; 0;  36770.160;  38419.438;  42757.293;  31621.383;250;   3.735;  17.618;;; 128.528;  95.118;  13.419;   5.459;   4.878;   3.769;   3.728;   3.465;   1.350;   0.355;;;;;;;;;;;;;;;;;;
2016-11-27T06:32:32.088Z;0;1.7390e+01;0;     0.140; 11135.908;  39065.887; 0;  37445.094;  39065.887;  43424.754;  32288.844;250;   3.735;  17.677;;; 128.586;  95.176;  13.420;   5.429;   4.848;   3.768;   3.727;   3.464;   1.351;   0.353;;;;;;;;;;;;;;;;;;
2016-11-27T06:32:40.088Z;0;1.7380e+01;0;     0.150; 11135.908;  39059.492; 0;  37438.422;  39059.492;  43418.152;  32282.246;250;   3.734;  17.735;;; 128.644;  95.234;  13.421;   5.399;   4.818;   3.768;   3.727;   3.463;   1.352;   0.351;;;;;;;;;;;;;;;;;;
2016-11-27T06:32:48.088Z;0;1.7430e+01;0;     0.142; 11135.908;  39105.020; 0;  37485.918;  39105.020;  43465.133;  32329.225;250;   3.734;  17.794;;; 128.702;  95.292;  13.422;   5.369;   4.788;   3.767;   3.727;   3.463;   1.352;   0.349;;;;;;;;;;;;;;;;;;
2016-11-27T06:32:56.088Z;0;1.7770e+01;0;     0.131; 11135.908;  39459.621; 0;  37855.691;  39459.621;  43830.930;  32695.021;250;   3.734;  17.852;;; 128.760;  95.350;  13.423;   5.339;   4.758;   3.766;   3.726;   3.462;   1.353;   0.347;;;;;;;;;;;;;;;;;;
2016-11-27T06:33:04.088Z;0;1.7550e+01;0;     0.143; 11146.884;  39239.387; 0;  37622.816;  39239.387;  43606.844;  32459.961;250;   3.733;  17.911;;; 128.818;  95.408;  13.424;   5.309;   4.727;   3.765;   3.726;   3.462;   1.354;   0.345;;;;;;;;;;;;;;;;;;
2016-11-27T06:33:12.088Z;0;1.8130e+01;0;     0.153; 11146.884;  39831.105; 0;  38239.559;  39831.105;  44217.035;  33070.148;250;   3.733;  17.969;;; 128.877;  95.466;  13.425;   5.279;   4.697;   3.765;   3.726;   3.461;   1.355;   0.343;;;;;;;;;;;;;;;;;;
2016-11-27T06:33:20.088Z;0;1.8520e+01;0;     0.130; 11146.884;  40225.594; 0;  38650.297;  40225.594;  44623.520;  33476.637;250;   3.733;  18.028;;; 128.935;  95.524;  13.427;   5.249;   4.667;   3.764;   3.725;   3.461;   1.356;   0.341;;;;;;;;;;;;;;;;;;
2016-11-27T06:33:28.088Z;0;1.8690e+01;0;     0.134; 11146.884;  40392.023; 0;  38823.480;  40392.023;  44794.938;  33648.055;250;   3.732;  18.086;;; 128.993;  95.582;  13.428;   5.219;   4.637;   3.763;   3.725;   3.460;   1.357;   0.339;;;;;;;;;;;;;;;;;;
2016-11-27T06:33:36.088Z;0;1.8590e+01;0;     0.143; 11146.884;  40294.637; 0;  38722.148;  40294.637;  44694.637;  33547.754;250;   3.732;  18.145;;; 129.051;  95.640;  13.429;   5.190;   4.607;   3.763;   3.725;   3.460;   1.358;   0.337;;;;;;;;;;;;;;;;;;
2016-11-27T06:33:44.088Z;0;1.8560e+01;0;     0.137; 11146.884;  40265.734; 0;  38692.070;  40265.734;  44664.867;  33517.984;250;   3.732;  18.204;;; 129.109;  95.698;  13.430;   5.160;   4.577;   3.762;   3.724;   3.459;   1.359;   0.335;;;;;;;;;;;;;;;;;;
2016-11-27T06:33:52.088Z;0;1.8790e+01;0;     0.139; 11146.884;  40495.102; 0;  38930.711;  40495.102;  44901.086;  33754.199;250;   3.731;  18.262;;; 129.167;  95.756;  13.431;   5.130;   4.547;   3.761;   3.724;   3.458;   1.360;   0.333;;;;;;;;;;;;;;;;;;
2016-11-27T06:34:00.088Z;0;1.8980e+01;0;     0.128; 11157.943;  40686.379; 0;  39126.484;  40686.379;  45101.203;  33943.258;250;   3.731;  18.321;;; 129.226;  95.814;  13.432;   5.100;   4.517;   3.761;   3.724;   3.458;   1.361;   0.331;;;;;;;;;;;;;;;;;;
2016-11-27T06:34:08.088Z;0;1.9110e+01;0;     0.144; 11157.943;  40806.785; 0;  39251.676;  40806.785;  45225.145;  34067.199;250;   3.730;  18.379;;; 129.284;  95.872;  13.433;   5.070;   4.487;   3.760;   3.723;   3.457;   1.362;   0.329;;;;;;;;;;;;;;;;;;
2016-11-27T06:34:16.088Z;0;1.9050e+01;0;     0.149; 11157.943;  40754.699; 0;  39197.523;  40754.699;  45171.531;  34013.586;250;   3.730;  18.438;;; 129.342;  95.930;  13.434;   5.040;   4.457;   3.759;   3.723;   3.457;   1.363;   0.327;;;;;;;;;;;;;;;;;;
2016-11-27T06:34:24.088Z;0;1.9130e+01;0;     0.144; 11157.943;  40829.820; 0;  39275.621;  40829.820;  45248.852;  34090.910;250;   3.730;  18.496;;; 129.400;  95.988;  13.435;   5.010;   4.427;   3.758;   3.723;   3.456;   1.364;   0.326;;;;;;;;;;;;;;;;;;
2016-11-27T06:34:32.088Z;0;1.9090e+01;0;     0.162; 11157.943;  40793.836; 0;  39238.211;  40793.836;  45211.816;  34053.871;250;   3.729;  18.555;;; 129.458;  96.046;  13.436;   4.980;   4.397;   3.758;   3.722;   3.456;   1.365;   0.324;;;;;;;;;;;;;;;;;;
2016-11-27T06:34:40.088Z;0;2.0140e+01;0;     0.167; 11157.943;  41812.996; 0;  40296.734;  41812.996;  46260.070;  35102.129;250;   3.729;  18.613;;; 129.516;  96.104;  13.438;   4.950;   4.367;   3.757;   3.722;   3.455;   1.366;   0.322;;;;;;;;;;;;;;;;;;
2016-11-27T06:34:48.088Z;0;1.9360e+01;0;     0.135; 11157.943;  41061.602; 0;  39516.520;  41061.602;  45487.371;  34329.426;250;   3.729;  18.672;;; 129.574;  96.162;  13.439;   4.920;   4.337;   3.756;   3.722;   3.455;   1.367;   0.320;;;;;;;;;;;;;;;;;;
2016-11-27T06:34:56.088Z;0;2.0840e+01;0;     0.185; 11157.943;  42485.789; 0;  40994.422;  42485.789;  46951.273;  35793.332;250;   3.728;  18.731;;; 129.633;  96.220;  13.440;   4.890;   4.307;   3.756;   3.722;   3.454;   1.367;   0.318;;;;;;;;;;;;;;;;;;
2016-11-27T06:35:04.087Z;0;1.9820e+01;0;     0.151; 11169.172;  41511.742; 0;  39980.926;  41511.742;  45953.656;  34784.484;250;   3.728;  18.789;;; 129.691;  96.278;  13.441;   4.860;   4.277;   3.755;   3.721;   3.453;   1.368;   0.316;;;;;;;;;;;;;;;;;;
2016-11-27T06:35:12.087Z;0;2.0360e+01;0;     0.170; 11169.172;  42034.070; 0;  40522.988;  42034.070;  46490.578;  35321.406;250;   3.728;  18.848;;; 129.749;  96.336;  13.442;   4.830;   4.246;   3.754;   3.721;   3.453;   1.369;   0.314;;;;;;;;;;;;;;;;;;
2016-11-27T06:35:20.087Z;0;2.1160e+01;0;     0.192; 11169.172;  42790.316; 0;  41306.910;  42790.316;  47267.297;  36098.125;250;   3.727;  18.906;;; 129.807;  96.395;  13.443;   4.800;   4.216;   3.754;   3.721;   3.452;   1.370;   0.312;;;;;;;;;;;;;;;;;;
2016-11-27T06:35:28.087Z;0;2.0760e+01;0;     0.174; 11169.172;  42408.457; 0;  40911.207;  42408.457;  46875.195;  35706.023;250;   3.727;  18.965;;; 129.865;  96.453;  13.444;   4.769;   4.186;   3.753;   3.720;   3.452;   1.371;   0.310;;;;;;;;;;;;;;;;;;
2016-11-27T06:35:36.087Z;0;2.1260e+01;0;     0.182; 11169.172;  42885.781; 0;  41405.793;  42885.781;  47365.293;  36196.121;250;   3.727;  19.023;;; 129.923;  96.511;  13.445;   4.739;   4.156;   3.752;   3.720;   3.451;   1.372;   0.308;;;;;;;;;;;;;;;;;;
2016-11-27T06:35:44.087Z;0;2.0790e+01;0;     0.149; 11169.172;  42436.992; 0;  40940.785;  42436.992;  46904.504;  35735.332;250;   3.726;  19.082;;; 129.981;  96.569;  13.446;   4.709;   4.126;   3.752;   3.720;   3.451;   1.373;   0.306;;;;;;;;;;;;;;;;;;
2016-11-27T06:35:52.087Z;0;2.3120e+01;0;     0.155; 11169.172;  44598.547; 0;  43177.309;  44598.547;  49121.555;  37952.383;250;   3.726;  19.140;;; 130.040;  96.627;  13.448;   4.679;   4.096;   3.751;   3.719;   3.450;   1.374;   0.304;;;;;;;;;;;;;;;;;;
2016-11-27T06:36:08.087Z;0;2.1880e+01;0;     0.222; 11180.708;  43468.562; 0;  42006.043;  43468.562;  47966.758;  36786.051;250;   3.725;  19.257;;; 130.156;  96.744;  13.450;   4.619;   4.036;   3.750;   3.719;   3.449;   1.376;   0.300;;;;;;;;;;;;;;;;;;
2016-11-27T06:36:32.087Z;0;2.3480e+01;0;     0.227; 11180.708;  44923.125; 0;  43509.527;  44923.125;  49457.551;  38276.844;250;   3.724;  19.433;;; 130.330;  96.919;  13.453;   4.529;   3.945;   3.748;   3.718;   3.447;   1.379;   0.294;;;;;;;;;;;;;;;;;;
2016-11-27T06:36:40.087Z;0;2.3880e+01;0;     0.187; 11180.708;  45288.543; 0;  43886.715;  45288.543;  49831.691;  38650.984;250;   3.724;  19.491;;; 130.388;  96.977;  13.454;   4.499;   3.915;   3.747;   3.717;   3.447;   1.380;   0.292;;;;;;;;;;;;;;;;;;
2016-11-27T06:36:48.087Z;0;2.4840e+01;0;     0.204; 11180.708;  46132.613; 0;  44757.230;  46132.613;  50695.363;  39514.656;250;   3.724;  19.550;;; 130.447;  97.036;  13.455;   4.469;   3.885;   3.746;   3.717;   3.446;   1.380;   0.290;;;;;;;;;;;;;;;;;;
2016-11-27T06:36:56.087Z;0;2.3870e+01;0;     0.189; 11180.708;  45273.605; 0;  43871.301;  45273.605;  49816.402;  38635.691;250;   3.723;  19.608;;; 130.505;  97.094;  13.456;   4.439;   3.855;   3.746;   3.717;   3.446;   1.381;   0.288;;;;;;;;;;;;;;;;;;
2016-11-27T06:37:04.087Z;0;2.5360e+01;0;     0.238; 11192.607;  46588.684; 0;  45224.230;  46588.684;  51165.477;  39972.871;250;   3.723;  19.667;;; 130.563;  97.152;  13.457;   4.409;   3.824;   3.745;   3.716;   3.445;   1.382;   0.286;;;;;;;;;;;;;;;;;;
2016-11-27T06:37:12.087Z;0;2.4200e+01;0;     0.153; 11192.607;  45575.684; 0;  44179.957;  45575.684;  50129.293;  38936.684;250;   3.723;  19.725;;; 130.621;  97.211;  13.459;   4.378;   3.794;   3.744;   3.716;   3.444;   1.383;   0.284;;;;;;;;;;;;;;;;;;
2016-11-27T06:37:20.087Z;0;2.6040e+01;0;     0.167; 11192.607;  47168.543; 0;  45821.359;  47168.543;  51758.145;  40565.539;250;   3.722;  19.784;;; 130.679;  97.269;  13.460;   4.348;   3.764;   3.744;   3.716;   3.444;   1.384;   0.282;;;;;;;;;;;;;;;;;;
2016-11-27T06:37:28.087Z;0;2.5510e+01;0;     0.156; 11192.607;  46715.977; 0;  45355.352;  46715.977;  51295.609;  40103.004;250;   3.722;  19.843;;; 130.737;  97.328;  13.461;   4.318;   3.734;   3.743;   3.715;   3.443;   1.385;   0.280;;;;;;;;;;;;;;;;;;
2016-11-27T06:37:36.086Z;0;2.6480e+01;0;     0.157; 11192.607;  47548.883; 0;  46212.789;  47548.883;  52146.711;  40954.102;250;   3.722;  19.901;;; 130.795;  97.386;  13.462;   4.288;   3.704;   3.743;   3.715;   3.443;   1.386;   0.278;;;;;;;;;;;;;;;;;;
2016-11-27T06:37:44.086Z;0;2.6640e+01;0;     0.179; 11192.607;  47684.191; 0;  46351.996;  47684.191;  52284.914;  41092.305;250;   3.721;  19.960;;; 130.853;  97.445;  13.463;   4.258;   3.673;   3.742;   3.715;   3.442;   1.387;   0.276;;;;;;;;;;;;;;;;;;
2016-11-27T06:37:52.086Z;0;2.6440e+01;0;     0.160; 11192.607;  47515.504; 0;  46178.445;  47515.504;  52112.617;  40920.008;250;   3.721;  20.018;;; 130.912;  97.503;  13.464;   4.228;   3.643;   3.741;   3.715;   3.442;   1.388;   0.274;;;;;;;;;;;;;;;;;;
2016-11-27T06:38:00.086Z;0;2.6470e+01;0;     0.152; 11204.788;  47544.422; 0;  46205.246;  47544.422;  52146.047;  40941.258;250;   3.721;  20.077;;; 130.970;  97.562;  13.465;   4.198;   3.613;   3.741;   3.714;   3.441;   1.389;   0.272;;;;;;;;;;;;;;;;;;
2016-11-27T06:38:08.086Z;0;2.6680e+01;0;     0.152; 11204.788;  47720.141; 0;  46386.039;  47720.141;  52325.527;  41120.742;250;   3.720;  20.135;;; 131.028;  97.620;  13.466;   4.167;   3.583;   3.740;   3.714;   3.440;   1.390;   0.270;;;;;;;;;;;;;;;;;;
2016-11-27T06:38:16.086Z;0;2.6660e+01;0;     0.152; 11204.788;  47701.766; 0;  46367.133;  47701.766;  52306.762;  41101.973;250;   3.720;  20.194;;; 131.086;  97.679;  13.467;   4.137;   3.553;   3.739;   3.714;   3.440;   1.391;   0.268;;;;;;;;;;;;;;;;;;
2016-11-27T06:38:24.086Z;0;2.7770e+01;0;     0.130; 11204.788;  48626.996; 0;  47318.469;  48626.996;  53251.363;  42046.574;250;   3.720;  20.252;;; 131.144;  97.737;  13.468;   4.107;   3.522;   3.739;   3.713;   3.439;   1.392;   0.266;;;;;;;;;;;;;;;;;;
2016-11-27T06:38:32.086Z;0;2.7630e+01;0;     0.123; 11204.788;  48511.516; 0;  47199.785;  48511.516;  53133.508;  41928.719;250;   3.719;  20.311;;; 131.202;  97.796;  13.470;   4.077;   3.492;   3.738;   3.713;   3.439;   1.392;   0.264;;;;;;;;;;;;;;;;;;
2016-11-27T06:38:40.086Z;0;2.7950e+01;0;     0.131; 11204.788;  48778.055; 0;  47473.691;  48778.055;  53405.512;  42200.727;250;   3.719;  20.369;;; 131.260;  97.854;  13.471;   4.047;   3.462;   3.738;   3.713;   3.438;   1.393;   0.262;;;;;;;;;;;;;;;;;;
2016-11-27T06:38:48.086Z;0;2.8050e+01;0;     0.128; 11204.788;  48862.168; 0;  47560.113;  48862.168;  53491.340;  42286.551;250;   3.719;  20.428;;; 131.318;  97.913;  13.472;   4.017;   3.432;   3.737;   3.712;   3.438;   1.394;   0.260;;;;;;;;;;;;;;;;;;
2016-11-27T06:38:56.086Z;0;2.8330e+01;0;     0.138; 11204.788;  49094.258; 0;  47798.523;  49094.258;  53728.121;  42523.336;250;   3.718;  20.486;;; 131.376;  97.972;  13.473;   3.986;   3.401;   3.736;   3.712;   3.437;   1.395;   0.258;;;;;;;;;;;;;;;;;;
2016-11-27T06:39:04.086Z;0;2.8450e+01;0;     0.114; 11217.305;  49194.363; 0;  47898.406;  49194.363;  53834.312;  42617.008;250;   3.718;  20.545;;; 131.435;  98.030;  13.474;   3.956;   3.371;   3.736;   3.712;   3.436;   1.396;   0.256;;;;;;;;;;;;;;;;;;
2016-11-27T06:39:12.086Z;0;2.8610e+01;0;     0.114; 11217.305;  49322.691; 0;  48030.199;  49322.691;  53965.211;  42747.910;250;   3.718;  20.603;;; 131.493;  98.089;  13.475;   3.926;   3.341;   3.735;   3.711;   3.436;   1.397;   0.254;;;;;;;;;;;;;;;;;;
2016-11-27T06:39:20.086Z;0;2.9120e+01;0;     0.124; 11217.305;  49736.637; 0;  48455.188;  49736.637;  54387.359;  43170.055;250;   3.717;  20.661;;; 131.551;  98.148;  13.476;   3.896;   3.310;   3.735;   3.711;   3.435;   1.398;   0.252;;;;;;;;;;;;;;;;;;
2016-11-27T06:39:28.086Z;0;2.8710e+01;0;     0.118; 11217.305;  49404.605; 0;  48114.312;  49404.605;  54048.762;  42831.457;250;   3.717;  20.720;;; 131.609;  98.206;  13.477;   3.866;   3.280;   3.734;   3.711;   3.435;   1.399;   0.250;;;;;;;;;;;;;;;;;;
2016-11-27T06:39:36.086Z;0;2.9260e+01;0;     0.120; 11217.305;  49855.668; 0;  48577.359;  49855.668;  54508.719;  43291.418;250;   3.717;  20.778;;; 131.667;  98.265;  13.478;   3.835;   3.250;   3.733;   3.711;   3.434;   1.400;   0.248;;;;;;;;;;;;;;;;;;
2016-11-27T06:39:44.086Z;0;2.9150e+01;0;     0.125; 11217.305;  49765.176; 0;  48484.480;  49765.176;  54416.457;  43199.152;250;   3.716;  20.837;;; 131.725;  98.324;  13.480;   3.805;   3.220;   3.733;   3.710;   3.433;   1.401;   0.246;;;;;;;;;;;;;;;;;;
2016-11-27T06:39:52.086Z;0;2.9400e+01;0;     0.116; 11217.305;  49968.340; 0;  48692.988;  49968.340;  54623.590;  43406.285;250;   3.716;  20.895;;; 131.783;  98.382;  13.481;   3.775;   3.189;   3.732;   3.710;   3.433;   1.402;   0.244;;;;;;;;;;;;;;;;;;
2016-11-27T06:40:00.086Z;0;2.9450e+01;0;     0.115; 11230.072;  50010.281; 0;  48733.086;  50010.281;  54670.539;  43440.465;250;   3.716;  20.954;;; 131.841;  98.441;  13.482;   3.745;   3.159;   3.732;   3.710;   3.432;   1.403;   0.242;;;;;;;;;;;;;;;;;;
2016-11-27T06:40:08.086Z;0;2.9150e+01;0;     0.107; 11230.072;  49767.145; 0;  48483.547;  49767.145;  54422.645;  43192.574;250;   3.715;  21.012;;; 131.900;  98.499;  13.483;   3.714;   3.129;   3.731;   3.709;   3.432;   1.404;   0.241;;;;;;;;;;;;;;;;;;
2016-11-27T06:40:16.085Z;0;2.9500e+01;0;     0.113; 11230.072;  50046.266; 0;  48770.012;  50046.266;  54707.223;  43477.152;250;   3.715;  21.071;;; 131.959;  98.556;  13.484;   3.684;   3.098;   3.730;   3.709;   3.431;   1.404;   0.239;;;;;;;;;;;;;;;;;;
2016-11-27T06:40:24.085Z;0;3.0680e+01;0;     0.120; 11230.072;  50995.000; 0;  49743.094;  50995.000;  55674.043;  44443.969;250;   3.715;  21.129;;; 132.018;  98.613;  13.485;   3.654;   3.068;   3.730;   3.709;   3.431;   1.405;   0.237;;;;;;;;;;;;;;;;;;
2016-11-27T06:40:32.085Z;0;3.0930e+01;0;     0.115; 11230.072;  51190.102; 0;  49943.086;  51190.102;  55872.777;  44642.707;250;   3.714;  21.188;;; 132.076;  98.671;  13.486;   3.624;   3.038;   3.729;   3.708;   3.430;   1.406;   0.235;;;;;;;;;;;;;;;;;;
2016-11-27T06:40:40.085Z;0;3.1160e+01;0;     0.118; 11230.072;  51369.684; 0;  50127.137;  51369.684;  56055.680;  44825.605;250;   3.714;  21.246;;; 132.135;  98.728;  13.487;   3.593;   3.007;   3.729;   3.708;   3.429;   1.407;   0.233;;;;;;;;;;;;;;;;;;
2016-11-27T06:40:48.085Z;0;3.1420e+01;0;     0.112; 11230.072;  51572.371; 0;  50334.828;  51572.371;  56262.086;  45032.012;250;   3.714;  21.305;;; 132.194;  98.785;  13.488;   3.563;   2.977;   3.728;   3.708;   3.429;   1.408;   0.231;;;;;;;;;;;;;;;;;;
2016-11-27T06:40:56.085Z;0;3.1240e+01;0;     0.109; 11230.072;  51432.773; 0;  50191.789;  51432.773;  56119.930;  44889.859;250;   3.713;  21.363;;; 132.253;  98.843;  13.489;   3.533;   2.947;   3.728;   3.708;   3.428;   1.409;   0.229;;;;;;;;;;;;;;;;;;
2016-11-27T06:41:04.085Z;0;3.1330e+01;0;     0.102; 11243.120;  51502.488; 0;  50260.309;  51502.488;  56195.273;  44952.152;250;   3.713;  21.422;;; 132.312;  98.900;  13.491;   3.503;   2.916;   3.727;   3.707;   3.428;   1.410;   0.227;;;;;;;;;;;;;;;;;;
2016-11-27T06:41:12.085Z;0;3.1590e+01;0;     0.107; 11243.120;  51707.543; 0;  50470.410;  51707.543;  56404.078;  45160.957;250;   3.713;  21.480;;; 132.371;  98.957;  13.492;   3.472;   2.886;   3.727;   3.707;   3.427;   1.411;   0.225;;;;;;;;;;;;;;;;;;
2016-11-27T06:41:20.085Z;0;3.1920e+01;0;     0.110; 11243.120;  51965.094; 0;  50734.242;  51965.094;  56666.297;  45423.176;250;   3.713;  21.539;;; 132.430;  99.014;  13.493;   3.442;   2.856;   3.726;   3.707;   3.426;   1.412;   0.223;;;;;;;;;;;;;;;;;;
2016-11-27T06:41:28.085Z;0;3.1640e+01;0;     0.092; 11243.120;  51746.156; 0;  50509.969;  51746.156;  56443.395;  45200.273;250;   3.712;  21.597;;; 132.488;  99.072;  13.494;   3.412;   2.825;   3.725;   3.706;   3.426;   1.413;   0.221;;;;;;;;;;;;;;;;;;